www.pogodaiklimat.ru

Погода и климат >> Архив погоды >> Корея >> Тэгу


ПОГОДА в Тэгу

  • Прогноз погоды в Тэгу
  • Монитор погоды в Тэгу

АРХИВ ПОГОДЫ в Тэгу

Время (UTC), дата Ветер
(напр.,м/с)
 
Видим.   Явления Облачность Т
(С)
Тd
(С)
f
(%)
Тe
(С)
Тes
(С)
Комфортность P
(гПа)
Po
(гПа)
Тmin
(С)
Tmax
(С)
R
(мм)
R24
(мм)
S
(см)
21 18.06 штиль 0 6000 м дымка 8/0
[Ac trans]
+19.7 +15.9 79 +22 +22 комфорт 1008.1 1001.8
00 19.06 СЗ 5 11 км 8/6 1000 м
[Sc Ac trans]
+24.6 +16.5 61 +28 +30 душно 1007.9 1001.8 +19.3
03 19.06 14 км н/о +26.8 +16.1 52 +30 +32 душно 1007.0 1000.9
06 19.06 СЗ 3 14 км 8/8 1000 м
[Sc]
+28.3 +16.2 48 +32 +33 душно 1005.4 999.3
09 19.06 19 км н/о +27.9 +15.5 47 +31 +32 душно 1004.7 998.6
12 19.06 СЗ 5 18 км 3/3 1500 м
[Sc]
+25.5 +15.5 54 +29 +29 душно 1005.7 999.5 +29.2
15 19.06 С 1 12 км 4/0
[Ci fib]
+23.3 +16.3 65 +28 +28 душно 1006.6 1000.4
18 19.06 С 1 7000 м мгла 1/0
[Ci fib]
+21.6 +16.3 72 +25 +25 комфорт 1006.4 1000.2
21 19.06 ЮЗ 1 6000 м дымка 1/0
[Ci fib]
+21.1 +17.1 78 +25 +25 комфорт 1007.5 1001.2
00 20.06 З 6 11 км 6/6 1000 м
[Sc]
+24.7 +16.1 59 +28 +30 душно 1007.3 1001.2 +20.0
03 20.06 З 3 9000 м мгла 6/0
[Ci fib]
+28.3 +15.9 47 +31 +47 душно 1006.3 1000.2
06 20.06 З 2 18 км 8/0
[Ci fib]
+31.9 +14.5 35 +34 +46 душно 1004.0 998.0
09 20.06 З 2 18 км 8/3 1000 м
[Sc Ci fib]
+32.0 +14.6 35 +34 +35 душно 1003.3 997.3
12 20.06 СЗ 5 20 км 6/4 1000 м
[Sc Ci fib]
+28.1 +17.0 51 +32 +32 душно 1005.6 999.5 +33.2
15 20.06 СЗ 2 17 км 9/0
[Ci sp]
+26.5 +16.7 55 +30 +30 душно 1005.6 999.5
18 20.06 З 3 9000 м мгла 4/0
[Ci fib]
+24.9 +17.3 63 +29 +29 душно 1005.2 999.0
21 20.06 З 3 6000 м мгла 8/0
[Cc]
+23.7 +17.6 69 +28 +28 душно 1005.7 999.5
00 21.06 ЮЗ 3 7000 м мгла 3/0
[Ci fib]
+26.9 +17.3 56 +31 +39 душно 1005.2 999.1 +22.8
03 21.06 СЗ 5 14 км 3/1 1000 м
[Sc Ci fib]
+30.4 +14.8 39 +33 +42 душно 1003.8 997.8
06 21.06 З 2 19 км 6/6 1000 м
[Cu med, cong]
+32.6 +12.2 29 +33 +37 жарко 1001.7 995.7
09 21.06 10 км н/о +25.3 +18.2 65 +30 +30 душно 1003.5 997.4
12 21.06 В 9 7000 м слаб. ливневой дождь 10/8 600 м
[Cb cap As op]
+20.8 +19.2 91 +25 +25 комфорт 1006.4 1000.1 +33.6 16
15 21.06 19 км н/о +19.3 +17.0 87 +21 +21 комфорт 1007.3 1001.0
18 21.06 ЮВ 3 20 км 3/3 1000 м
[Sc]
+18.4 +15.6 84 +19 +19 1006.9 1000.6
21 21.06 20 км н/о +18.2 +14.8 81 +19 +19 1007.4 1001.1
00 22.06 В 6 20 км 8/8 1000 м
[Sc]
+20.6 +13.3 63 +23 +24 комфорт 1008.2 1001.9 +17.9 3
03 22.06 ЮВ 4 19 км 3/3 1000 м
[Sc Ac trans Ci fib]
+24.1 +13.6 52 +26 +36 жарко 1007.3 1001.1
06 22.06 В 4 20 км 3/3 1000 м
[Sc]
+26.0 +14.1 48 +28 +35 жарко 1005.6 999.5
09 22.06 В 11 20 км 3/0
[Ci fib]
+24.2 +13.7 52 +26 +26 жарко 1005.3 999.2
12 22.06 ЮВ 10 20 км 8/3 1000 м
[Sc Ac trans Ci fib]
+20.9 +11.7 56 +22 +22 комфорт 1008.0 1001.7 +26.7
15 22.06 ЮВ 3 20 км 4/0
[Ac trans]
+19.6 +12.3 63 +21 +21 комфорт 1007.9 1001.6
18 22.06 ЮВ 2 20 км ясно +17.2 +13.5 79 +18 +18 1007.8 1001.5
21 22.06 штиль 0 19 км 3/1 1000 м
[Sc Ac trans]
+16.7 +14.5 87 +17 +17 1009.1 1002.7
00 23.06 штиль 0 20 км 3/3 1500 м
[Sc]
+22.5 +14.0 59 +26 +36 жарко 1008.9 1002.7 +15.9
03 23.06 20 км н/о +25.3 +11.4 42 +27 +29 жарко 1008.1 1001.9
06 23.06 В 4 20 км 8/8 1500 м
[Sc]
+25.7 +11.4 41 +27 +28 жарко 1007.8 1001.6
09 23.06 ЮВ 4 20 км 3/3 1500 м
[Sc]
+24.8 +12.7 47 +27 +28 жарко 1007.8 1001.7
12 23.06 В 4 20 км ясно +21.3 +12.9 59 +24 +24 комфорт 1009.6 1003.3 +26.6
15 23.06 20 км н/о +18.8 +14.6 77 +20 +20 1010.6 1004.3
18 23.06 Ю 2 20 км 3/3 1500 м
[Sc]
+17.8 +15.0 84 +19 +19 1011.5 1005.2
21 23.06 В 1 19 км 4/3 1500 м
[Sc Ac trans]
+18.7 +15.3 81 +21 +21 комфорт 1012.3 1006.0
00 24.06 В 3 20 км 3/1 1500 м
[Sc Ac trans]
+22.9 +14.7 60 +27 +34 душно 1013.0 1006.8 +17.5
03 24.06 19 км н/о +26.8 +13.1 43 +29 +40 жарко 1012.3 1006.1
06 24.06 З 2 20 км 4/4 1000 м
[Sc diur, vesp]
+28.7 +12.9 38 +30 +39 жарко 1011.2 1005.1
09 24.06 19 км н/о +26.9 +15.9 51 +30 +31 душно 1011.6 1005.5
12 24.06 ЮВ 5 20 км 3/3 1000 м
[Sc]
+23.1 +16.1 65 +28 +28 душно 1014.2 1008.0 +30.2
15 24.06 ЮВ 2 19 км 6/3 1000 м
[Sc Ci fib]
+20.2 +16.0 77 +24 +24 комфорт 1015.8 1009.5
18 24.06 ЮВ 1 11 км ясно +18.7 +16.6 88 +21 +21 комфорт 1015.9 1009.6
21 24.06 ЮВ 2 6000 м дымка ясно +17.9 +16.7 93 +18 +19 1016.3 1009.9
00 25.06 СВ 3 8000 м мгла ясно +24.0 +17.2 66 +28 +37 душно 1016.0 1009.8 +17.8
03 25.06 В 2 16 км 3/3 1000 м
[Sc]
+29.1 +16.2 46 +32 +47 душно 1014.2 1008.1
06 25.06 В 3 18 км 6/6 1000 м
[Sc]
+31.9 +15.3 37 +34 +39 душно 1012.6 1006.5
09 25.06 20 км н/о +29.6 +14.5 40 +32 +33 душно 1012.4 1006.3
12 25.06 В 4 20 км ясно +26.0 +15.9 54 +29 +29 душно 1014.3 1008.1 +32.4
15 25.06 ЮВ 3 11 км 4/0
[Ci fib]
+22.4 +16.6 70 +27 +27 душно 1014.4 1008.1

 

Местоположение метеостанции Тэгу (Корея): широта 35.88 долгота 128.61 высота над уровнем моря 59 м.

В архиве по умолчанию представлена погода в Тэгу за последнюю неделю. Архивные данные за месяц целиком и за предыдущие месяцы, начиная с января 2011 года, Вы можете получить, выбрав интересующий диапазон дат из раскрывающегося списка и нажав кнопку "Ввод!".


*Определитесь, кто Вы:
робот инопланетянин человек

Внимание! Время в таблицах - всемирное. Для получения местного времени необходимо прибавить поправку, которая равна 9 ч.

Смотрите также архив погоды в соседних городах и на ближайших метеорологических станциях:

Погода в Куми (Корея) (37 км)
Погода на Чупунджнеоне (Корея) (67 км)
Погода в Чинхэгу (Корея) (68 км)
Погода в Санджу (Корея) (71 км)
Погода в Пхохане (Корея) (71 км)
Погода в Ульсане (Корея) (73 км)
Погода в Андоне (Корея) (77 км)
Погода в Масане (Корея) (78 км)
Погода в Чинджу (Корея) (88 км)
Погода в Пусане (Корея) (95 км)

Пояснения к столбцам:

Ветер - указаны скорость ветра в м/с - средняя за 10 мин, порывы в срок и между сроками (в фигурных скобках) и направление, откуда дует ветер: С - северный, СВ - северо-восточный, В - восточный, ЮВ - юго-восточный, Ю - южный, ЮЗ - юго-западный, З - западный, СЗ - северо-западный.
Видимость - горизонтальная дальность видимости в метрах или километрах. При видимости от 1 до 10 км при отсутствии осадков обычно наблюдается дымка, при ухудшении видимости до 1 км и менее - туман. В сухую погоду видимость может ухудшаться дымом, пылью или мглою.
Явления - указаны атмосферные явления, наблюдавшиеся в срок или в последний час перед сроком; фигурными скобками обозначены явления, наблюдавшиеся между сроками (за 1-3 часа до срока); квадратными скобками обозначены град или гололедные отложения с указанием их диаметра в мм.
Облачность - указаны через наклонную черту общая и нижняя облачность в баллах и высота нижней границы облаков в метрах; квадратными скобками обозначены формы облаков: Ci - перистые, Cs - перисто-слоистые, Cc - перисто-кучевые, Ac - высококучевые, As - высокослоистые, Sc - слоисто-кучевые, Ns - слоисто-дождевые, Cu - кучевые, Cb - кучево-дождевые. Подробнее классификацию облаков см. в Атласе облаков (PDF).
T - Температура воздуха - температура, измеренная на высоте 2 м над землей.
Td - Температура точки росы - температура, при понижении до которой содержащийся в воздухе водяной пар достигнет насыщения.
f - Относительная влажность воздуха - влажноcть воздуха, измеренная на высоте 2 м над землей.
Te - Эффективная температура - температура, которую ощущает одетый по сезону человек в тени. Характеристика душности погоды. При расчете учитывается влияние влажности воздуха и скорости ветра на теплоощущения человека.
Tes - Эффективная температура на солнце - температура, которую ощущает человек, с поправкой на солнечный нагрев. Характеристика знойности погоды. Зависит от высоты солнца над горизонтом, облачности и скорости ветра. Ночью, в пасмурную погоду, а также при ветре 12 м/с и более поправка равна нулю.
P - Атмосферное давление - приведенное к уровню моря атмосферное давление.
Po - Атмосферное давление - измеренное на уровне метеостанции атмосферное давление.
Tmin - Минимальная температура - минимум температуры воздуха на высоте 2 м над землей.
Tmax - Максимальная температура - максимум температуры воздуха на высоте 2 м над землей.
R - Количество осадков - Количество выпавших осадков за период времени, мм. При наведении курсора мыши на число - период времени, за который выпало указанное количество осадков.
R24 - Количество осадков - Количество выпавших осадков за 24 часа, мм.
S - Снежный покров - Высота снежного покрова, см. При наведении курсора мыши на число - состояние снежного покрова и степень покрытия местности в баллах.